Flag for U.S.A. Weather past 2 weeks in Pembroke Pines, Florida, U.S.A.

Now
77 °F

Clear.


Feels Like: 79 °F
Forecast: 80 / 91 °F
Wind: No wind

Location: North Perry Airport

Current Time: Aug 1, 2015 at 2:56:40 AM

Latest Report: Aug 1, 2015 at 1:53 AM


Visibility: 10 mi

Pressure: 30.04 "Hg

Humidity: 79%

Dew point: 70 °F

Location of Pembroke PinesLocation

Historic Weather in Pembroke Pines — Graph

°F

Pembroke Pines temperature yesterday

Maximum temperature yesterday: 93 °F (at 11:53 AM)
Minimum temperature yesterday: 76 °F (at 3:01 PM)
Average temperature yesterday: 82 °F

Past Weeks' High & Low Weather Summary

 TemperatureHumidityPressure
High97 °F (Jul 28, 2:53 PM)94% (Jul 25, 5:53 PM)30.11 "Hg (Jul 25, 5:53 PM)
Low75 °F (Jul 17, 6:53 AM)36% (Jul 28, 2:53 PM)29.89 "Hg (Jul 26, 4:53 AM)
Average84 °F71%30.02 "Hg
* Reported Jul 17 12:53 AM — Aug 1 12:53 AM, Pembroke Pines, Weather by CustomWeather, © 2015

Note: Actual official high and low records may vary slightly from our data, if they occured in-between our weather recording intervals... More about our weather records

Advertising

Pembroke Pines weather history for previous 24 hours

 ConditionsComfort  
Time TempWeatherWind HumidityBarometerVisibility
12:53 AM
Sat, Aug 1
77 °FClear.No wind77%30.06 "Hg10 mi
11:53 PM
Fri, Jul 31
77 °FClear.5 mph77%30.06 "Hg10 mi
10:53 PM76 °FClear.6 mph80%30.04 "Hg10 mi
9:53 PM76 °FLight rain. Passing clouds.6 mph77%30.04 "Hg10 mi
8:53 PM78 °FSunny.8 mph66%30.04 "Hg10 mi
7:53 PM78 °FLight rain. Passing clouds.12 mph66%30.01 "Hg10 mi
6:53 PM79 °FSunny.8 mph65%30.02 "Hg10 mi
5:53 PM80 °FSunny.9 mph67%30.01 "Hg10 mi
4:53 PM78 °FBroken clouds.No wind82%30.00 "Hg10 mi
3:53 PM78 °FLight rain. Partly sunny.9 mph76%30.02 "Hg10 mi
3:01 PM76 °FHeavy rain. Cloudy.8 mph80%30.03 "Hg3 mi
1:53 PM91 °FBroken clouds.9 mph57%30.01 "Hg10 mi
12:53 PM92 °FScattered clouds.7 mph52%30.02 "Hg10 mi
11:53 AM93 °FScattered clouds.7 mph47%30.04 "Hg10 mi
10:53 AM89 °FPartly sunny.8 mph61%30.05 "Hg10 mi
9:53 AM88 °FPassing clouds.8 mph65%30.05 "Hg10 mi
8:53 AM84 °FSunny.No wind72%30.05 "Hg10 mi
7:53 AM81 °FSunny.No wind85%30.03 "Hg10 mi
6:53 AM81 °FClear.No wind79%30.02 "Hg10 mi
5:53 AM81 °FClear.No wind79%30.02 "Hg10 mi
4:53 AM81 °FClear.No wind77%30.01 "Hg10 mi
3:53 AM82 °FClear.3 mph74%30.01 "Hg10 mi
2:53 AM82 °FClear.No wind74%30.01 "Hg10 mi
Weather by CustomWeather, © 2015

See weather overviewHow to use our weather pages